Home   Weather   Post Falls   Past weeks
Flag for USA

Past Weather in Post Falls, Idaho, USA — Yesterday and Last 2 Weeks

Now
8 °F

Passing clouds.


Feels Like: 8 °F
Forecast: 27 / 8 °F
Wind: No wind

Location: Coeur d'Alene Weather Reporting System

Current Time: Feb 19, 2019 at 7:06:19 am

Latest Report: Feb 19, 2019 at 5:56 am


Visibility: 10 mi

Pressure: 30.31 "Hg (27.77 "Hg at 664m altitude)

Humidity: 91%

Dew Point: 6 °F

Location of Post FallsLocation

Past Weather in Post Falls — Graph

°F

Post Falls Temperature Yesterday

Maximum temperature yesterday: 31 °F (at 12:56 pm)
Minimum temperature yesterday: 2 °F (at 8:56 pm)
Average temperature yesterday: 14 °F

High & Low Weather Summary for the Past Weeks

 TemperatureHumidityPressure
High36 °F (Feb 13, 12:11 pm)100% (Feb 13, 3:18 am)30.60 "Hg (Feb 13, 3:18 am)
Low0 °F (Feb 7, 4:17 am)40% (Feb 18, 12:56 pm)29.29 "Hg (Feb 14, 3:16 pm)
Average21 °F83%29.90 "Hg
* Reported Feb 4 5:56 am — Feb 19 5:56 am, Post Falls. Weather by CustomWeather, © 2019

Note: Actual official high and low records may vary slightly from our data, if they occured in-between our weather recording intervals... More about our weather records

Advertising

Post Falls Weather History for the Previous 24 Hours

Scroll right to see more
 ConditionsComfort  
Time TempWeatherWind HumidityBarometerVisibility
5:56 am
Tue, Feb 19
8 °FPassing clouds.No wind91%30.31 "Hg10 mi
4:56 am7 °FClear.7 mph91%30.31 "Hg10 mi
3:56 am10 °FMostly cloudy.3 mph92%30.32 "Hg10 mi
2:56 am7 °FPassing clouds.5 mph87%30.34 "Hg9 mi
1:56 am8 °FPassing clouds.3 mph91%30.35 "Hg10 mi
12:56 am5 °FPassing clouds.No wind91%30.35 "Hg10 mi
11:56 pm
Mon, Feb 18
10 °FOvercast.No wind92%30.37 "Hg10 mi
10:56 pm14 °FMostly cloudy.6 mph87%30.37 "Hg10 mi
9:56 pm7 °FOvercast.3 mph87%30.41 "Hg10 mi
8:56 pm2 °FPassing clouds.No wind88%30.43 "Hg10 mi
7:56 pm6 °FClear.No wind79%30.43 "Hg10 mi
6:56 pm13 °FClear.No wind74%30.44 "Hg10 mi
5:56 pm18 °FOvercast.No wind65%30.43 "Hg10 mi
4:56 pm21 °FOvercast.No wind60%30.43 "Hg10 mi
3:56 pm24 °FPartly sunny.No wind52%30.43 "Hg10 mi
2:56 pm26 °FPartly sunny.No wind50%30.43 "Hg10 mi
12:56 pm31 °FScattered clouds.No wind40%30.43 "Hg10 mi
11:56 am26 °FOvercast.No wind52%30.46 "Hg10 mi
10:56 am24 °FPartly sunny.5 mph57%30.47 "Hg10 mi
9:56 am20 °FPassing clouds.7 mph57%30.47 "Hg10 mi
8:56 am15 °FSunny.5 mph67%30.47 "Hg10 mi
7:56 am10 °FScattered clouds.3 mph73%30.48 "Hg10 mi
Weather by CustomWeather, © 2019

See weather overview